Location: Eppenbrunn
(49.1158°N, 7.5601°E)
Time: 02:48:00
(UTC+00:00)

STARLINK-2695 - Pass Details

Date: 01 August 2021
Orbit: 546 x 548 km, 53.1° (Epoch: 19 September)

Event Time Altitude Azimuth Distance (km) Brightness Sun altitude
Rises 19:47:55 0° 289° (WNW) 2,722 8.9 -6.2°
Reaches altitude 10° 19:50:40 10° 271° (W) 1,824 7.2 -6.6°
Maximum altitude 19:53:34 19° 226° (SW) 1,356 5.7 -6.9°
Drops below altitude 10° 19:56:28 10° 182° (S) 1,815 5.9 -7.3°
Enters shadow 19:58:17 - 168° (SSE) 2,388 6.4 -7.5°
